Regional Weather Roundup
Issued by NWS Albany, NY

Home | Current Version | Previous Version | Graphics & Text | Print | Product List | Glossary Off
Versions: 1 2 3 4 5 6 7 8 9 10 11 12 13 14 15 16 17 18 19 20 21 22 23 24 25 26 27 28 29 30 31 32 33 34 35 36 37 38 39 40 41 42 43 44 45 46 47 48 49 50

958
ASUS41 KALY 110110
RWRALY

NEW YORK STATE HOURLY WEATHER ROUNDUP
NATIONAL WEATHER SERVICE ALBANY NY
800 PM EST WED FEB 10 2016

NOTE: "FAIR" INDICATES FEW OR NO CLOUDS BELOW 12,000 FEET WITH NO
SIGNIFICANT WEATHER AND/OR NO OBSTRUCTIONS TO VISIBILITY.

NYZ032-033-038>043-046>054-057>066-NYZ062>081-110200-
EAST


CITY           SKY/WX    TMP DP  RH WIND       PRES   REMARKS
ALBANY         MOCLDY    30  20  66 W8        29.67R WCI  22
GLENS FALLS    MOCLDY    31  16  54 W7        29.64R WCI  24
POUGHKEEPSIE   CLOUDY    34  19  54 W7        29.68S WCI  28
NEWBURGH       MOCLDY    32  25  74 W9        29.68S WCI  24
MONTGOMERY     CLOUDY    33  19  56 W8G21     29.68R WCI  26
WHITE PLAINS   MOCLDY    34  18  52 W6        29.67S WCI  29
ISLIP          PTCLDY    33  19  56 W13       29.69R WCI  24
NEW YORK CITY  PTCLDY    35  16  45 W20       29.72R WCI  24
CENTRAL PARK   CLEAR     33  16  49 VRB5G21   29.74S WCI  29
$$

NYZ005>009-017-018-044>046-055-056-110200-
CENTRAL


CITY           SKY/WX    TMP DP  RH WIND       PRES   REMARKS
FULTON         LGT SNOW  27  20  75 W14       29.70S WCI  16
SYRACUSE       FLURRIES  25  16  68 W22G32    29.70R WCI  10
ROME           CLOUDY    24  21  88 W9        29.69S WCI  14
ELMIRA         FLURRIES  24  14  65 NW18G26   29.73R WCI  10
BINGHAMTON     FLURRIES  21  16  81 W10       29.65S WCI  10
MONTICELLO     CLOUDY    27  18  69 W9G17     29.65S WCI  17
$$

NYZ026>034-041>043-110200-
NORTH


CITY           SKY/WX    TMP DP  RH WIND       PRES   REMARKS
WATERTOWN      CLOUDY    23  20  88 CALM      29.67F FOG
FORT DRUM      NOT AVBL
MASSENA        CLOUDY    21  15  78 W8        29.68R WCI  11
SARANAC LAKE   LGT SNOW  17  14  88 SW5       29.55S FOG     WCI  10
PLATTSBURGH    CLOUDY    23  18  81 CALM      29.64R
$$

NYZ001>004-010>016-019>021-110200-
WEST


CITY           SKY/WX    TMP DP  RH WIND       PRES   REMARKS
NIAGARA FALLS  FLURRIES  19  10  68 W20       29.78R WCI   3
BUFFALO        FLURRIES  17  10  74 W17G23    29.78R WCI   1
DUNKIRK        LGT SNOW  18  10  71 W16G26    29.84R WCI   3
JAMESTOWN      CLOUDY    12   7  79 W13G18    29.75R WCI  -3
WELLSVILLE     LGT SNOW  15   6  67 W17G30    29.70S WCI  -1
ROCHESTER      LGT SNOW  23  15  71 W16       29.75R WCI  10
PENN YAN       CLOUDY    23   9  55 W17G31    29.72R WCI   9
$$

             KEY
       WCI = WIND CHILL INDEX
       VSB = VISIBILITY
       HX  = HEAT INDEX
$$




USA.gov is the U.S. government's official web portal to all federal, state and local government web resources and services.